Regional Weather Roundup
Issued by NWS

Home | Current Version | Previous Version | Text Only | Print | Product List | Glossary On
Versions: 1 2 3 4 5 6 7 8 9 10 11 12 13 14 15 16 17 18 19 20 21 22 23 24 25 26 27 28 29 30 31 32 33 34 35 36 37 38 39 40 41 42 43 44 45 46 47 48 49 50
000
ASUS42 KFFC 281603
RWRGA
WEATHER ROUNDUP FOR GEORGIA
NATIONAL WEATHER SERVICE PEACHTREE CITY GA
1200 PM EDT SUN AUG 28 2016

NOTE: "FAIR" INDICATES FEW OR NO CLOUDS BELOW 12,000 FEET WITH NO
SIGNIFICANT WEATHER AND/OR OBSTRUCTIONS TO VISIBILITY.

* = USE WITH CAUTION. THE STATIONS MARKED WITH AN ASTERISK MAY NOT
REPORT WEATHER SUCH AS PRECIPITATION, FOG, OR THUNDER AND ARE NOT
QUALITY CONTROLLED BY NWS.

THE REMARK "TC" DENOTES TEMPERATURE READING IN DEGREES CELSIUS.

GAZ001>058-281700-
NORTH GEORGIA

CITY           SKY/WX    TMP DP  RH WIND       PRES   REMARKS
ATLANTA        MOSUNNY   84  71  65 NE12      30.19S
ATHENS         CLOUDY    83  75  77 NE6       30.19S HX  90
CHAMBLEE       MOSUNNY   85  71  63 VRB7      30.19F HX  90
PEACHTREE CITY PTSUNNY   84  71  65 NE8       30.18S
ROME           CLOUDY    84  70  62 E6        30.18S
WEST ATLANTA   SUNNY     85  70  60 E8        30.18S
GAINESVILLE    PTSUNNY   82  70  66 E10       30.24S
CARTERSVILLE   MOSUNNY   87  70  56 NE8G16    30.19S HX  92


CITY           SKY/WX    TMP DP  RH WIND       PRES   REMARKS
DALTON*        PTSUNNY   82  70  65 CALM      30.19F
LAWRENCEVILLE* PTSUNNY   82  72  69 E7        30.20S
MARIETTA       PTSUNNY   83  71  67 NE6       30.19F
CANTON*        SUNNY    N/A N/A N/A E6        30.22F
BLAIRSVILLE*     N/A    N/A N/A N/A MISG      30.25F
$$

GAZ059>098-102>109-281700-
CENTRAL GEORGIA

CITY           SKY/WX    TMP DP  RH WIND       PRES   REMARKS
AUGUSTA-BUSH   MOSUNNY   91  70  49 NE9       30.13F HX  96
AUGUSTA-DANIEL PTSUNNY   88  70  55 NE9       30.16F HX  93
COLUMBUS       MOSUNNY   86  68  54 E10       30.12F
MACON          SUNNY     90  68  48 E12       30.13F HX  94
ROBINS AFB     SUNNY     88  70  54 NE8       30.12F HX  93


CITY           SKY/WX    TMP DP  RH WIND       PRES   REMARKS
LAGRANGE*      SUNNY     89  74  61 SE8       30.15F HX  97
MILLEDGEVILLE* SUNNY     88  73  62 E5        30.14F HX  96
$$

GAZ099>101-110>166-281700-
SOUTH GEORGIA

CITY           SKY/WX    TMP DP  RH WIND       PRES   REMARKS
SAVANNAH       PTSUNNY   90  71  53 NE9       30.10F HX  96
VALDOSTA       MOSUNNY   89  75  63 NE8       30.07S HX  99
ALMA           MOSUNNY   86  70  58 E9        30.09S HX  90
ST SIMONS      MOSUNNY   86  74  67 E15       30.08F HX  94
FT STEWART     MOSUNNY   89  73  58 E6        30.07F HX  96
ALBANY         PTSUNNY   89  69  51 E13       30.11S HX  93
HUNTER AFB     MOSUNNY   86  78  75 E10G20    30.08S HX  98
MOODY AFB      MOSUNNY   88  72  57 E9        30.06F HX  94
BRUNSWICK      CLOUDY    86  77  74 E15G24    30.09S HX  97


CITY           SKY/WX    TMP DP  RH WIND       PRES   REMARKS
BAINBRIDGE*    MOSUNNY   91  73  55 E7        30.07F HX 100
MOULTRIE*      MOSUNNY   86  70  58 E9        30.09S HX  90
VIDALIA*       MOSUNNY   90  75  62 E15       30.11F HX 100
WAYCROSS*        N/A     92  74  55 E10       30.08F HX 102
DOUGLAS*       MOSUNNY   86  70  58 E6        30.10F HX  90
$$



USA.gov is the U.S. government's official web portal to all federal, state and local government web resources and services.